Vorticity
5 7 10 8 9 6 5 10 8 6 7 7 5 5 4 4 5 6 5 4 3 3 3 4 6 7 7 7 7 8 7 7 7 7 7 7 6 6 5 4 4 4 3
10 8 9 9 9 7 7 9 8 6 7 5 6 5 5 5 5 5 5 4 3 4 6 7 8 7 7 8 8 8 8 8 8 8 8 9 10 9 10 9 8 7 6
6 6 7 8 9 8 7 7 8 8 7 5 5 5 5 5 5 5 4 4 5 6 6 6 5 5 5 5 4 5 5 5 5 4 4 5 4 4 5 5 6 7 7
4 7 7 6 9 9 8 7 9 8 7 6 6 6 6 6 5 5 5 6 6 6 5 5 5 6 6 6 6 6 5 5 6 6 6 6 6 7 7 6 6 6 6
6 7 8 8 7 8 8 8 8 8 8 7 6 7 7 6 6 6 6 6 6 6 6 6 6 6 6 6 5 5 5 5 5 5 6 6 5 5 5 5 6 5 5
7 8 9 9 7 7 7 9 8 8 8 7 7 7 7 7 6 6 5 5 5 5 5 4 4 4 4 4 4 3 4 5 5 5 5 5 5 5 5 5 5 4 4
8 6 8 7 8 8 8 8 8 8 8 7 7 7 7 6 6 5 4 4 4 4 4 4 4 4 4 4 4 5 5 5 5 5 5 4 4 4 4 4 5 5 5
9 10 10 9 9 10 9 9 8 8 8 8 8 7 7 6 6 5 5 4 4 4 4 4 4 4 4 5 5 5 5 5 4 4 4 4 5 4 4 4 3 3 4
12 10 11 9 10 9 8 9 8 7 7 7 7 7 7 7 6 6 5 5 5 5 5 5 5 5 6 6 5 5 5 5 5 5 5 4 4 4 4 4 4 4 4
13 10 10 7 8 10 9 9 8 7 7 7 6 6 6 6 6 6 5 5 6 6 7 7 6 6 6 5 5 5 6 5 5 5 5 5 4 4 4 5 4 4 4
10 10 5 6 10 9 9 9 7 7 7 7 8 7 7 7 7 7 7 7 7 6 6 6 6 6 6 6 6 6 6 6 6 6 6 6 5 5 5 5 5 5 6
14 10 9 7 8 6 4 5 6 7 8 8 8 8 8 8 7 7 7 7 7 6 6 6 6 6 6 6 6 5 5 4 4 4 5 5 6 6 6 6 6 6 6
10 6 7 7 8 9 9 7 7 8 9 8 7 6 6 6 6 6 6 7 8 8 8 7 6 5 4 3 4 5 6 7 7 6 5 5 4 4 4 4 4 4 3
11 10 11 9 9 9 8 9 8 6 6 6 6 6 6 6 6 6 6 6 6 5 6 7 8 8 7 6 6 5 5 5 5 6 5 6 6 7 7 8 8 9 9
4 8 13 13 11 8 9 3 3 1 1 3 4 5 7 8 7 7 7 7 6 5 4 3 4 6 6 6 5 6 6 9 9 9 9 9 9 9 8 6 7 7 7
6 6 11 10 5 7 8 9 8 11 15 14 11 10 10 10 8 5 3 4 7 8 7 7 7 8 8 9 8 7 7 6 6 6 5 5 5 5 5 5 6 6 6
21 26 13 15 15 15 15 15 12 7 6 5 4 3 4 6 8 8 8 8 9 9 8 9 8 5 4 6 7 7 6 5 5 5 6 6 6 6 6 7 7 7 8
0 9 11 8 6 2 3 5 5 5 6 6 6 8 10 12 12 12 10 8 5 6 6 8 8 7 7 6 6 7 6 5 5 5 6 7 8 9 8 8 8 8 7
16 11 13 9 4 -1 5 5 4 3 6 11 19 13 9 10 8 7 6 6 6 6 5 5 5 5 4 5 4 5 6 6 7 7 8 8 7 9 10 9 10 11 12
-3 -1 -1 4 10 9 11 15 12 13 17 11 6 6 5 4 4 4 3 3 5 5 5 5 6 5 5 7 7 7 8 7 7 7 9 10 13 13 13 14 16 16 17
13 10 14 19 17 16 17 14 12 8 4 2 5 4 1 2 5 6 7 8 7 6 5 6 6 6 6 7 8 9 11 13 14 16 16 16 15 14 14 14 14 14 15
10 9 10 12 11 6 7 5 0 4 3 -0 1 4 6 7 6 6 5 4 5 5 6 6 6 9 12 14 15 16 15 15 14 13 12 12 12 13 14 15 16 17 16
11 12 9 6 5 5 3 4 2 1 2 6 8 7 6 6 5 5 5 6 8 11 13 15 17 15 14 14 13 13 12 13 14 14 14 15 16 17 18 19 18 19 20
6 5 7 3 1 2 1 1 6 9 8 8 8 7 7 9 11 12 14 15 14 13 12 12 12 12 11 11 12 13 16 16 15 17 18 18 19 20 22 24 25 26 27
4 4 5 1 1 3 6 9 9 8 6 6 7 9 10 12 12 12 11 11 12 12 12 12 11 13 15 18 19 19 20 21 24 23 24 23 24 25 23 22 21 20 17
2 0 2 6 10 10 8 7 7 9 11 13 13 13 12 11 11 12 13 14 14 14 15 17 18 18 21 22 21 21 21 20 19 16 15 15 14 16 17 16 15 13 11
Height
5747 5749 5751 5754 5757 5760 5763 5766 5769 5772 5775 5777 5780 5782 5785 5787 5789 5791 5792 5793 5795 5796 5797 5798 5800 5801 5803 5804 5805 5806 5807 5808 5808 5808 5809 5810 5811 5811 5811 5812 5813 5814 5814
5740 5742 5744 5747 5750 5753 5756 5759 5762 5765 5769 5771 5774 5776 5778 5781 5783 5785 5786 5788 5789 5791 5792 5793 5794 5795 5796 5797 5798 5800 5801 5801 5802 5802 5802 5803 5804 5804 5805 5805 5806 5806 5807
5732 5734 5737 5740 5744 5746 5749 5751 5754 5758 5762 5764 5767 5769 5771 5774 5776 5778 5779 5781 5783 5784 5785 5787 5788 5789 5790 5791 5792 5792 5793 5794 5795 5795 5795 5796 5797 5797 5798 5799 5798 5798 5799
5723 5727 5730 5732 5736 5739 5742 5744 5747 5750 5754 5757 5760 5762 5764 5766 5768 5770 5771 5773 5775 5776 5778 5779 5780 5781 5782 5783 5784 5785 5785 5786 5787 5788 5788 5788 5789 5788 5790 5790 5790 5790 5791
5716 5719 5722 5725 5728 5731 5734 5737 5739 5742 5745 5748 5751 5754 5756 5759 5760 5762 5763 5765 5767 5768 5769 5770 5772 5773 5773 5774 5775 5776 5777 5778 5778 5778 5779 5779 5780 5780 5780 5780 5780 5780 5781
5707 5711 5714 5717 5720 5723 5726 5729 5731 5734 5737 5740 5743 5745 5748 5750 5752 5753 5755 5756 5757 5759 5760 5761 5762 5763 5764 5765 5765 5766 5766 5767 5767 5768 5768 5768 5769 5770 5771 5771 5771 5769 5767
5699 5702 5706 5709 5712 5715 5718 5720 5723 5726 5729 5731 5734 5736 5738 5740 5743 5744 5746 5747 5748 5749 5750 5751 5752 5752 5753 5753 5754 5754 5755 5755 5755 5756 5756 5756 5756 5757 5758 5759 5761 5761 5760
5692 5695 5698 5701 5704 5707 5709 5712 5714 5717 5719 5722 5724 5726 5728 5730 5732 5734 5735 5736 5737 5738 5739 5740 5740 5740 5741 5741 5742 5742 5742 5742 5742 5742 5743 5743 5743 5744 5744 5744 5745 5747 5748
5683 5687 5690 5692 5695 5697 5700 5703 5705 5707 5709 5711 5713 5715 5717 5719 5721 5722 5723 5725 5725 5726 5727 5727 5728 5728 5728 5728 5728 5728 5728 5728 5728 5728 5728 5728 5728 5728 5729 5729 5730 5730 5732
5674 5677 5680 5683 5685 5688 5690 5693 5695 5697 5699 5701 5702 5704 5706 5707 5709 5710 5711 5712 5712 5713 5713 5714 5714 5714 5714 5714 5714 5714 5714 5713 5713 5712 5712 5712 5711 5711 5711 5711 5711 5711 5712
5666 5668 5671 5673 5676 5678 5681 5683 5685 5687 5689 5690 5691 5693 5694 5695 5696 5697 5698 5698 5699 5699 5699 5699 5699 5699 5699 5699 5699 5699 5698 5697 5696 5695 5695 5694 5693 5693 5692 5691 5690 5690 5690
5657 5660 5662 5665 5667 5669 5671 5673 5675 5677 5678 5679 5680 5681 5682 5683 5684 5684 5685 5685 5685 5685 5685 5684 5684 5684 5683 5683 5682 5682 5681 5679 5678 5677 5676 5675 5673 5672 5671 5670 5669 5668 5667
5647 5650 5652 5654 5656 5659 5661 5663 5664 5666 5667 5668 5669 5670 5670 5670 5670 5671 5671 5670 5670 5670 5669 5668 5668 5667 5666 5665 5664 5663 5662 5660 5658 5656 5655 5654 5652 5650 5649 5647 5646 5645 5644
5637 5640 5642 5644 5646 5648 5650 5651 5653 5654 5655 5656 5657 5657 5657 5657 5656 5656 5655 5655 5654 5653 5653 5651 5650 5649 5647 5646 5645 5644 5642 5639 5636 5634 5633 5631 5629 5626 5624 5622 5620 5619 5618
5626 5629 5631 5633 5635 5636 5638 5639 5640 5641 5642 5643 5643 5643 5642 5642 5641 5641 5640 5639 5638 5636 5635 5633 5631 5629 5627 5625 5623 5622 5620 5617 5614 5611 5609 5607 5604 5601 5598 5595 5593 5592 5590
5615 5618 5619 5621 5622 5624 5625 5626 5627 5628 5629 5629 5628 5628 5628 5627 5626 5625 5624 5622 5620 5618 5616 5614 5611 5608 5605 5603 5600 5598 5597 5593 5589 5586 5584 5581 5578 5574 5571 5567 5565 5564 5562
5604 5606 5607 5608 5610 5612 5613 5614 5615 5615 5616 5616 5615 5614 5613 5611 5609 5607 5605 5603 5601 5598 5596 5593 5590 5586 5583 5580 5576 5573 5572 5569 5564 5560 5557 5553 5549 5545 5542 5536 5534 5533 5530
5592 5594 5596 5597 5599 5601 5602 5602 5602 5602 5602 5601 5600 5598 5595 5594 5591 5589 5586 5583 5580 5578 5575 5571 5568 5564 5559 5555 5551 5548 5545 5542 5536 5532 5527 5524 5519 5513 5510 5504 5501 5500 5496
5581 5583 5585 5587 5588 5588 5589 5589 5588 5588 5587 5585 5583 5581 5578 5576 5573 5570 5566 5563 5560 5556 5553 5548 5544 5540 5534 5528 5523 5518 5515 5512 5506 5500 5496 5492 5488 5480 5475 5472 5467 5464 5461
5571 5573 5574 5574 5575 5575 5575 5575 5574 5574 5571 5569 5567 5564 5561 5558 5554 5550 5546 5542 5538 5533 5528 5523 5517 5512 5507 5499 5492 5486 5484 5480 5474 5468 5463 5457 5452 5446 5439 5434 5430 5427 5424
5559 5561 5562 5562 5562 5561 5561 5561 5560 5560 5557 5554 5550 5547 5543 5539 5534 5529 5523 5518 5513 5508 5502 5496 5490 5483 5475 5469 5460 5453 5449 5444 5440 5435 5428 5422 5417 5411 5406 5400 5395 5391 5388
5547 5548 5549 5550 5550 5549 5549 5548 5547 5544 5541 5537 5533 5527 5522 5517 5511 5505 5498 5491 5485 5479 5472 5465 5459 5450 5442 5436 5429 5420 5415 5410 5405 5401 5396 5391 5385 5380 5374 5369 5363 5356 5354
5535 5537 5538 5539 5539 5537 5536 5534 5532 5529 5524 5518 5512 5506 5499 5493 5486 5479 5472 5464 5455 5447 5441 5433 5426 5418 5410 5403 5394 5386 5382 5376 5368 5365 5361 5356 5352 5348 5342 5337 5330 5325 5321
5526 5527 5528 5528 5527 5525 5523 5520 5515 5510 5504 5498 5491 5484 5477 5468 5459 5451 5442 5434 5425 5417 5409 5400 5393 5386 5379 5371 5360 5354 5348 5342 5335 5330 5325 5320 5318 5315 5311 5306 5301 5296 5291
5517 5517 5516 5514 5512 5509 5506 5502 5496 5490 5483 5476 5468 5460 5452 5443 5433 5423 5413 5403 5394 5385 5377 5368 5359 5352 5348 5337 5327 5320 5316 5311 5304 5295 5292 5289 5287 5285 5283 5279 5276 5272 5267
5508 5507 5504 5501 5497 5494 5489 5483 5477 5470 5462 5453 5445 5435 5426 5416 5406 5396 5386 5372 5361 5352 5341 5333 5324 5318 5312 5305 5297 5290 5284 5279 5275 5266 5263 5262 5262 5261 5258 5256 5253 5249 5246